GFSNW_925_thetae_108.txt.gz
Theta_e
314 312 309 307 302 300 304 303 302 302 305 300 298 298 304 305 307 308 309 310 309 308 310 304 306 301 303 303 303 301 301 302 301 306 306 308 308 311 311 302 307 302 307 309
314 312 306 305 304 300 304 302 299 303 305 302 298 304 304 305 306 307 306 309 307 306 310 309 305 303 302 303 303 302 302 301 299 300 302 305 308 310 312 311 306 309 314 311
313 311 305 303 299 302 304 299 299 297 300 299 302 304 302 304 303 306 307 307 306 306 310 308 307 304 303 303 304 305 301 301 303 301 306 307 308 308 311 312 314 315 315 312
313 309 304 301 299 303 302 299 299 298 297 300 300 299 299 303 303 303 305 308 305 306 311 309 309 306 303 303 303 302 301 301 302 303 305 307 307 308 309 305 314 311 312 311
312 306 303 300 299 302 300 300 297 295 298 298 299 302 299 299 299 303 306 305 303 305 308 307 308 307 306 306 302 294 298 297 301 305 307 307 307 305 308 311 314 312 310 311
311 304 302 299 298 300 298 297 297 295 298 296 296 296 297 298 297 299 301 301 303 305 305 302 302 303 305 307 306 300 299 301 306 311 310 307 309 312 308 311 312 311 313 312
309 304 301 299 297 299 299 297 296 295 297 295 297 297 297 297 298 299 298 299 301 301 299 300 301 303 306 306 305 302 303 305 306 305 309 309 313 309 308 311 310 310 310 309
306 303 299 299 297 299 299 299 296 294 294 294 296 296 296 295 296 296 297 299 298 297 301 309 308 308 308 306 306 304 304 308 309 309 306 312 312 310 310 311 313 312 311 310
306 302 299 298 301 299 299 299 298 293 294 294 294 295 295 295 295 296 298 299 297 299 303 309 311 305 310 310 309 305 306 306 307 307 314 314 310 309 308 308 312 310 309 310
304 302 299 297 297 297 298 298 298 295 293 293 294 294 295 294 294 295 296 298 300 300 303 304 306 306 305 308 309 309 309 309 310 305 309 310 307 307 308 311 311 309 309 308
306 302 298 296 298 297 297 298 298 295 292 292 294 294 294 294 294 295 295 299 299 300 304 303 304 303 303 305 305 307 306 305 305 307 308 309 306 308 312 310 308 309 307 306
305 300 297 297 300 297 298 297 295 295 292 293 294 294 295 295 295 294 295 296 297 297 301 302 304 304 302 301 306 302 308 304 305 305 307 304 306 308 306 306 308 307 307 307
302 301 299 298 298 296 297 296 295 295 293 292 292 293 294 295 296 296 296 295 297 297 295 297 300 305 301 302 304 303 303 302 304 306 306 305 306 307 308 306 307 306 306 309
302 299 300 297 297 296 297 296 297 296 293 294 293 294 294 295 296 296 296 295 295 294 294 301 302 305 303 303 303 301 301 303 304 306 305 306 307 305 306 307 306 305 305 305
302 300 298 296 296 297 297 298 299 299 296 295 293 294 294 295 296 296 296 295 292 292 295 300 301 303 305 304 301 305 303 303 303 308 302 302 302 303 306 306 305 305 304 304
300 298 296 296 297 297 298 295 296 297 296 292 295 292 294 295 295 295 294 294 291 291 293 294 294 298 302 303 304 305 301 301 301 303 301 301 301 303 301 304 303 303 303 302
299 297 297 297 297 297 296 296 296 299 297 293 293 293 293 295 296 296 296 295 293 292 292 294 294 296 301 302 301 305 300 299 300 298 299 304 302 302 300 301 301 302 300 300
298 297 297 296 296 296 295 295 296 297 297 293 290 293 292 294 295 295 296 296 295 294 294 294 296 297 298 299 300 299 298 297 298 296 297 298 297 300 300 300 299 300 299 298
297 296 295 295 295 294 295 295 296 297 296 293 290 291 291 292 294 296 297 298 295 297 299 297 298 298 300 299 298 297 297 297 296 295 295 297 299 299 299 300 300 300 299 298
296 295 294 295 295 294 295 296 293 293 292 293 293 291 292 292 293 296 298 298 296 297 296 297 301 298 297 296 294 293 294 296 296 297 297 297 297 296 296 296 296 296 296 296
297 294 295 294 295 295 295 295 293 293 294 293 291 290 293 291 291 295 296 294 297 298 296 300 299 299 295 293 292 292 293 295 295 295 295 295 294 294 293 292 293 294 294 293
295 294 295 294 294 294 293 293 293 294 295 292 292 291 291 292 292 291 296 294 296 291 301 302 300 294 293 292 293 292 291 293 293 294 294 294 294 294 294 294 294 294 293 292
295 295 294 296 294 292 292 293 293 294 292 290 290 290 292 292 292 291 295 291 291 298 301 300 295 292 292 291 291 291 291 292 292 291 292 292 292 293 293 293 293 291 290 289
296 296 296 296 291 293 293 297 298 296 291 292 291 289 291 292 289 295 288 292 293 297 295 293 289 292 291 288 288 288 289 287 287 287 289 290 290 291 293 292 291 288 288 288
296 296 297 292 291 292 294 294 295 293 293 291 290 288 289 285 289 290 293 296 289 294 293 290 287 290 288 287 288 285 284 281 278 285 285 286 288 290 291 290 289 287 285 285
292 288 290 293 293 294 293 295 294 292 290 290 289 287 286 287 287 289 286 288 288 290 287 285 282 283 283 283 286 286 286 285 284 284 285 287 288 290 289 288 287 287 285 284
288 290 290 290 292 294 293 295 294 291 292 291 288 288 287 288 287 288 284 287 287 287 287 283 283 284 281 279 282 284 285 284 285 286 286 287 288 288 286 285 286 285 284 283

GFSNW_925_thetae_111.txt.gz
Theta_e
305 312 312 308 306 300 304 303 305 303 304 303 295 297 303 305 305 307 308 309 309 308 309 305 294 295 297 302 303 302 302 304 304 305 304 307 308 310 310 307 309 309 302 310
307 313 310 306 304 302 305 300 299 303 303 297 297 303 304 304 305 306 307 309 306 307 309 306 303 302 301 302 303 305 304 301 298 300 301 304 307 308 311 308 303 313 303 312
311 311 308 305 301 304 305 299 298 300 303 299 301 303 302 303 303 305 306 306 306 306 309 306 305 303 303 302 303 305 301 299 301 300 304 306 307 308 309 308 304 311 311 314
313 310 306 304 299 305 302 297 296 298 303 301 299 299 300 303 304 303 305 306 305 307 310 309 309 306 302 301 301 300 299 299 301 302 302 305 306 308 309 308 311 306 313 313
310 307 303 302 301 304 299 300 298 294 296 297 299 300 298 301 299 303 305 305 304 305 306 307 308 307 306 306 302 293 296 296 303 307 305 306 305 306 310 310 311 309 310 313
309 305 303 301 301 304 298 296 296 296 296 295 296 297 296 298 298 299 301 301 303 306 304 302 302 303 305 306 306 298 298 299 305 306 308 306 310 311 309 311 309 311 312 311
308 305 303 300 300 302 298 297 295 295 297 296 297 296 297 297 298 299 298 299 302 300 298 301 302 304 306 306 301 301 305 306 307 309 309 308 312 307 308 310 309 310 309 308
306 302 302 301 300 300 298 297 295 293 294 294 295 295 295 295 295 296 297 299 298 297 302 307 307 307 308 306 305 303 304 308 308 306 302 312 310 310 310 310 312 310 311 310
304 302 300 300 299 300 299 298 296 292 294 294 294 294 294 294 294 296 297 297 297 299 304 309 312 306 309 308 309 306 305 305 307 306 310 310 311 308 307 308 311 311 310 310
303 301 300 300 299 301 299 298 296 294 293 292 293 293 294 293 294 294 296 298 301 300 302 304 306 305 304 307 308 308 308 308 309 308 309 309 307 307 307 309 307 308 308 307
304 302 300 299 299 300 298 297 296 295 292 292 293 294 293 293 293 295 294 299 299 300 302 302 303 303 302 304 305 305 305 304 305 306 309 310 305 307 312 308 306 308 306 306
304 302 299 300 299 297 297 296 295 295 292 292 294 294 294 294 294 293 294 296 296 297 300 300 300 303 299 300 304 302 306 302 305 304 304 303 305 307 306 306 308 307 306 306
304 300 300 298 300 297 297 295 295 295 291 291 292 293 294 295 295 295 296 294 296 296 294 296 298 303 298 302 303 303 302 301 303 305 306 306 306 307 307 306 307 306 306 307
303 301 298 299 299 297 297 295 295 295 292 294 293 294 294 295 296 296 295 295 294 293 294 298 299 302 300 300 301 300 299 302 303 304 305 306 306 305 306 307 307 305 305 304
302 301 299 299 297 296 297 297 298 297 295 295 293 293 294 295 295 295 296 294 292 292 295 298 299 299 301 301 299 300 301 301 302 305 301 302 301 301 303 306 305 304 304 305
302 302 298 297 297 297 297 295 297 296 296 293 295 291 294 295 294 294 293 292 290 290 293 294 293 296 301 300 300 302 300 299 299 301 300 300 300 300 300 302 303 303 303 303
301 298 297 298 297 297 296 295 296 297 295 292 292 293 294 295 296 295 293 293 291 291 292 293 294 295 301 299 299 302 299 299 299 296 298 303 302 302 300 300 301 301 300 300
300 297 297 297 297 297 296 296 298 297 295 292 288 293 294 294 295 295 295 293 292 293 293 293 295 296 298 299 297 299 298 297 297 295 295 296 295 298 300 300 300 300 300 298
299 297 296 296 296 295 295 296 297 297 295 292 289 291 291 293 295 295 296 294 293 294 295 295 296 297 298 298 296 296 296 297 296 295 294 296 298 298 298 297 298 298 299 298
297 295 295 295 295 295 295 296 292 292 292 292 292 290 294 293 293 295 294 295 294 293 295 295 297 298 296 295 294 294 293 294 295 297 297 296 295 294 295 295 295 295 295 295
296 293 295 295 295 296 295 295 293 292 293 292 291 289 293 291 291 292 293 291 290 291 295 294 296 297 294 292 292 291 292 293 294 295 295 295 295 295 294 294 293 293 294 294
296 294 294 294 294 295 296 291 292 292 294 291 291 290 291 291 291 290 290 290 289 291 295 296 293 293 292 291 291 291 290 292 292 293 292 292 293 293 294 294 294 294 293 293
295 295 294 297 295 295 291 292 290 289 292 290 290 291 292 291 291 290 288 285 289 294 301 299 294 292 291 290 290 291 290 291 291 290 290 290 290 290 290 291 293 293 291 290
296 296 295 298 296 293 290 292 295 295 290 291 290 290 291 292 290 291 288 291 292 298 294 293 289 291 291 289 288 288 289 288 286 286 286 286 286 288 289 289 291 291 289 289
296 296 298 293 291 291 293 292 294 293 292 291 289 287 288 284 290 290 294 296 290 293 293 290 285 290 288 286 287 285 283 281 277 284 283 283 284 285 286 289 290 289 288 287
291 289 291 292 293 295 294 293 292 291 292 289 287 284 285 288 287 287 287 288 289 290 287 284 282 284 282 283 286 286 286 284 283 284 284 285 285 286 287 288 288 288 286 285
291 291 290 288 289 293 294 294 293 292 293 291 287 287 287 285 284 286 282 286 287 286 288 282 282 284 281 278 281 284 285 284 284 285 285 286 286 286 286 286 286 286 285 285

GFSNW_925_thetae_114.txt.gz
Theta_e
304 307 308 309 303 300 304 303 305 302 303 303 296 297 301 304 306 306 309 307 307 307 308 303 291 294 293 300 303 303 302 301 299 305 303 304 307 310 311 304 308 308 302 314
307 309 310 305 302 303 304 301 302 303 303 298 296 301 304 303 305 307 308 307 306 308 309 306 300 300 300 302 303 304 304 299 295 300 301 303 306 306 309 307 303 311 306 312
311 310 306 301 302 304 302 298 301 302 303 300 300 302 303 303 303 305 306 305 305 307 307 305 304 303 302 301 302 304 299 298 300 302 304 305 307 307 307 306 309 304 312 312
311 308 305 302 301 305 301 296 297 301 304 303 299 299 301 303 304 303 304 304 305 307 309 308 308 304 301 300 301 299 298 298 300 302 301 303 305 308 309 310 310 306 312 315
310 307 304 301 303 304 299 299 297 293 295 297 297 299 300 302 300 303 304 304 304 306 305 306 308 306 304 304 301 292 295 297 303 307 304 305 310 310 309 310 312 311 311 313
307 304 301 301 303 304 298 295 295 295 295 295 298 296 297 300 298 299 300 301 302 305 304 302 302 303 305 305 303 297 298 299 303 303 307 306 310 310 309 309 309 310 311 310
305 302 301 299 300 303 297 296 294 295 297 296 296 296 296 297 298 299 297 300 302 300 299 301 303 306 306 301 300 300 306 307 305 305 304 306 313 307 308 309 309 309 309 308
304 302 301 299 299 301 298 297 294 293 294 293 295 295 294 294 294 296 298 298 297 296 303 306 306 306 308 306 305 304 304 307 307 303 308 311 310 311 310 309 311 309 310 309
304 302 301 301 301 300 298 297 294 292 293 294 294 293 294 293 294 295 297 297 296 299 303 308 308 305 307 307 308 306 305 306 306 305 307 308 311 308 306 307 309 310 308 308
303 303 303 300 299 300 300 297 295 293 293 292 292 293 294 292 293 294 296 298 300 299 302 305 304 304 303 306 307 306 307 306 307 309 307 306 306 305 306 309 306 308 307 306
303 302 299 301 301 300 299 296 296 294 291 292 292 293 293 292 292 295 294 299 299 299 301 302 302 302 301 303 304 305 304 303 306 304 308 307 304 306 312 307 307 307 306 305
302 302 301 303 298 300 297 295 295 295 291 292 293 293 294 294 293 293 293 295 296 298 300 299 299 302 298 299 303 301 304 301 303 303 303 302 305 307 306 305 308 308 306 305
304 302 301 298 299 298 297 295 295 294 290 291 291 292 294 295 295 295 296 294 295 295 293 296 298 302 297 301 301 303 302 299 302 304 305 306 306 307 307 306 307 305 305 307
304 303 299 299 299 297 296 295 295 293 291 293 293 294 293 295 295 296 295 294 294 293 293 297 298 302 298 299 300 299 299 300 302 302 304 306 306 304 302 306 306 306 305 304
303 303 299 299 299 297 296 295 296 297 295 295 293 292 294 294 295 295 295 294 292 292 296 297 299 297 299 298 297 298 298 300 301 303 300 301 302 301 301 305 305 305 304 303
303 301 300 299 298 297 296 295 297 297 295 293 295 291 294 294 294 294 292 291 289 290 293 294 293 294 298 298 300 299 298 297 298 300 299 299 299 299 300 302 302 302 302 302
303 302 299 299 298 297 295 295 296 295 294 293 294 295 294 294 295 293 292 291 290 291 291 293 293 295 298 298 298 299 298 297 296 296 298 302 301 301 299 300 300 300 300 300
303 302 299 298 297 297 296 296 297 296 294 291 291 293 294 294 295 294 292 292 291 292 293 292 295 295 296 298 296 298 296 295 295 295 295 296 295 296 298 299 299 300 299 299
301 299 297 296 296 296 295 297 297 296 295 292 291 292 293 293 293 292 293 292 293 293 294 294 295 296 297 298 295 296 295 296 295 294 295 296 297 295 295 295 295 296 296 296
298 296 295 295 294 295 295 296 291 290 290 291 292 291 295 294 294 294 291 293 292 289 294 294 296 297 295 294 293 293 293 294 293 296 296 296 295 294 293 294 293 294 294 294
296 293 295 294 295 296 295 295 291 291 293 292 291 290 293 291 291 290 292 289 288 290 294 293 293 296 293 291 291 291 291 292 293 294 294 294 294 292 292 292 293 293 293 294
295 295 294 295 295 295 297 293 291 291 294 290 291 291 291 291 290 290 289 290 287 290 293 293 292 293 291 290 290 290 290 291 292 293 292 291 291 291 290 290 290 292 293 293
295 293 294 296 295 297 294 292 289 287 291 291 291 292 291 291 291 290 286 286 289 293 299 298 294 291 290 289 289 289 289 291 291 290 289 288 288 288 288 288 289 289 291 291
295 297 298 299 298 295 291 291 293 292 293 292 292 291 292 292 290 290 289 291 291 299 291 292 288 290 290 288 288 288 288 287 287 287 286 285 284 284 285 286 287 287 289 289
296 296 300 297 293 288 288 290 291 291 293 291 290 288 289 284 290 291 293 295 294 293 292 290 285 289 288 287 286 285 284 280 277 282 282 283 284 283 284 287 287 288 288 287
294 292 289 292 290 294 294 291 293 291 292 289 288 287 286 288 289 290 291 290 289 290 288 284 282 286 284 284 286 285 285 283 283 284 284 284 284 284 285 286 286 286 286 286
292 291 289 290 286 291 294 294 293 293 293 290 288 290 290 285 284 287 284 287 287 285 285 282 282 284 282 279 280 283 283 284 284 284 284 283 284 284 284 284 285 285 285 285

GFSNW_925_thetae_120.txt.gz
Theta_e
307 307 305 305 304 303 302 303 306 302 303 305 303 306 304 304 307 308 309 307 307 306 305 304 302 303 301 301 303 305 304 305 308 308 305 303 308 311 312 318 316 314 319 318
307 305 304 303 303 303 303 303 304 303 304 305 305 304 305 304 306 307 307 306 307 307 306 305 303 302 302 303 303 305 304 305 311 311 308 307 310 311 310 309 311 317 321 319
304 304 303 303 304 304 302 304 306 304 304 301 304 305 305 304 305 306 305 306 306 306 306 304 303 303 303 302 303 303 301 305 306 310 308 306 313 312 313 313 317 316 317 316
305 304 303 304 303 301 299 301 303 302 305 304 304 302 304 305 305 304 305 305 306 307 306 307 306 304 304 303 301 301 301 308 307 307 306 307 311 312 313 313 314 316 314 313
305 305 304 304 304 301 298 301 302 299 301 302 304 300 305 305 304 304 305 305 306 306 307 307 307 307 305 305 304 301 303 308 307 308 308 308 311 311 311 312 313 312 312 312
305 304 304 304 303 299 299 295 295 301 299 302 302 302 303 304 303 302 302 304 306 306 305 305 305 305 304 304 304 305 306 307 309 311 309 309 312 312 313 313 311 312 316 313
306 304 304 305 303 298 297 295 296 301 301 303 302 299 299 302 301 304 301 303 305 303 301 304 305 305 304 304 305 304 308 309 309 313 309 313 310 310 310 313 313 312 312 312
306 304 303 305 304 301 297 294 296 299 302 299 297 298 299 299 298 300 301 300 299 299 304 306 306 306 308 306 306 306 307 308 310 312 311 310 311 310 310 311 314 311 312 311
305 303 302 302 300 300 299 295 294 297 300 298 296 298 297 301 301 300 300 299 298 303 306 308 309 310 307 308 307 306 307 307 310 309 312 312 311 310 308 309 312 310 310 311
305 305 303 302 300 300 298 296 294 296 297 294 294 298 298 296 298 301 300 301 302 302 308 310 309 308 306 309 308 307 307 308 310 310 311 309 307 308 307 312 312 309 310 309
303 304 303 302 302 299 299 296 295 295 296 294 294 294 295 295 297 302 299 303 303 305 308 307 307 307 307 307 306 308 308 310 310 309 310 311 307 308 311 310 309 309 308 309
301 304 304 303 302 301 299 296 295 294 295 295 292 293 293 293 294 297 297 301 302 306 307 304 304 305 303 306 309 303 309 307 309 308 308 306 308 309 308 308 310 308 309 308
302 300 304 303 302 300 298 295 295 294 294 294 294 295 293 294 294 295 302 299 299 300 298 303 303 305 303 307 307 306 304 302 307 306 306 308 308 308 309 308 309 307 307 308
301 301 303 304 301 300 297 295 295 294 294 296 295 293 294 294 294 294 294 296 295 297 298 303 305 305 301 304 303 305 305 303 306 307 305 306 307 307 307 307 307 307 306 306
301 302 304 303 301 300 297 295 295 294 295 297 295 293 294 293 294 294 294 295 297 299 302 303 305 302 303 302 301 304 302 306 307 308 307 308 308 306 304 306 306 306 306 305
301 303 304 303 301 299 297 297 296 296 294 297 297 293 294 293 293 293 293 294 295 297 301 302 299 297 302 305 305 304 301 301 303 306 304 304 304 303 303 304 304 304 304 303
301 300 304 302 300 300 295 297 296 296 294 296 296 296 295 294 294 294 294 293 294 296 298 299 299 300 302 303 305 302 300 302 301 302 303 304 303 304 301 301 301 301 301 301
300 299 303 302 301 298 297 297 296 295 293 294 296 296 295 294 296 296 294 296 295 295 297 296 298 298 300 303 303 299 300 301 300 301 299 302 301 299 300 300 300 301 301 299
299 299 301 300 298 296 295 296 296 294 294 298 295 296 297 294 295 295 295 295 297 295 297 297 298 301 302 302 300 299 300 301 301 298 298 298 300 299 298 298 297 298 298 297
299 300 299 296 295 296 296 296 296 296 296 294 296 294 296 295 295 296 297 295 298 299 298 296 299 300 300 298 298 299 300 300 299 299 298 298 298 298 297 297 296 295 295 294
299 295 296 294 295 295 296 298 297 297 297 296 295 295 295 293 296 297 295 296 296 298 299 299 301 301 299 297 296 296 299 297 299 298 298 298 298 297 296 294 293 292 291 291
297 296 294 295 295 297 298 299 296 295 299 294 294 294 295 293 293 296 293 297 293 299 296 298 300 300 295 295 295 295 297 296 295 295 295 294 293 292 291 291 290 289 288 288
295 294 294 296 297 299 299 299 296 294 294 293 293 295 293 292 293 295 293 295 296 295 299 300 299 296 294 294 294 294 295 294 293 292 291 290 289 288 287 287 287 287 287 287
296 297 298 298 299 300 300 299 298 295 293 293 296 294 296 295 295 294 296 295 296 298 300 300 299 295 294 294 294 293 293 292 291 290 288 288 287 286 285 286 285 286 286 286
297 297 301 299 298 294 293 292 293 292 294 295 294 293 294 294 293 294 293 294 298 298 300 300 296 294 293 293 292 292 291 288 286 284 285 285 284 285 285 285 284 284 285 286
296 297 299 294 296 295 292 291 293 294 295 293 294 294 294 296 295 294 296 296 298 300 297 296 292 293 293 292 291 291 288 286 285 285 285 285 284 284 284 284 284 284 284 284
297 297 294 295 295 298 295 293 294 294 294 297 293 295 298 290 293 295 294 296 300 296 292 290 293 292 292 289 287 286 285 285 285 285 285 285 284 283 283 284 285 285 284 284

GFSNW_925_thetae_126.txt.gz
Theta_e
305 306 306 306 304 304 305 304 306 304 306 307 309 309 307 305 308 308 308 308 307 307 306 305 304 304 302 303 303 305 306 305 308 310 308 310 311 316 316 316 317 317 319 316
307 307 306 305 305 302 302 305 305 304 306 313 308 306 306 307 308 307 306 307 307 307 306 307 303 305 303 302 303 304 304 307 310 311 309 309 314 313 313 315 317 316 315 317
304 304 303 303 302 300 301 306 306 306 307 305 307 306 306 306 306 306 306 307 307 307 307 305 305 305 305 304 304 304 302 306 309 312 313 314 314 314 313 314 315 316 316 316
304 304 304 303 299 299 301 305 307 305 308 305 306 307 306 306 306 305 306 307 307 307 308 307 307 307 306 304 305 304 305 309 308 309 311 311 311 312 313 314 315 316 316 315
306 304 304 303 301 301 303 304 305 303 304 305 306 304 306 306 306 306 307 307 307 307 307 307 307 306 306 307 306 304 306 309 308 310 309 310 312 311 312 314 313 314 315 317
307 306 304 304 303 300 302 301 302 302 303 305 306 304 306 306 306 305 305 306 307 308 306 305 306 305 305 306 306 307 308 308 309 309 310 309 311 312 312 312 312 314 316 313
306 305 304 304 304 302 299 297 298 302 304 304 305 303 305 306 305 306 305 305 306 305 304 305 305 306 306 306 306 306 308 309 310 308 311 311 311 310 311 312 311 311 312 312
305 304 304 304 301 300 299 296 298 300 304 304 301 302 303 303 302 304 305 304 302 303 305 307 308 308 308 309 307 306 307 308 309 309 307 310 311 311 310 311 311 310 312 311
305 305 304 302 302 300 300 298 297 299 301 300 299 301 302 303 303 303 304 302 302 304 306 307 310 310 308 310 308 306 307 307 308 310 311 313 312 310 310 310 311 309 311 310
303 305 305 304 303 300 301 299 297 299 300 296 297 300 300 301 303 304 303 303 304 305 307 308 309 308 307 309 308 309 308 309 310 310 310 310 309 309 309 314 313 310 310 310
301 301 303 304 304 302 301 300 296 298 299 297 296 297 298 298 299 303 303 303 304 305 307 308 308 307 306 307 307 308 308 307 308 309 310 308 309 309 312 309 309 309 309 308
299 301 302 304 304 303 302 300 297 296 299 298 296 296 295 296 296 296 301 304 305 306 307 307 306 306 304 305 306 306 306 306 308 307 309 308 309 309 309 308 308 309 308 308
299 300 301 303 305 304 302 298 296 297 298 297 295 296 295 295 295 296 299 302 301 303 300 303 305 305 303 304 304 306 305 304 305 306 306 308 308 308 308 308 308 307 308 308
298 300 301 302 301 302 302 297 297 296 298 298 297 294 295 295 295 295 297 297 299 299 300 303 305 306 303 303 303 304 304 303 305 305 306 306 307 307 307 307 307 307 307 307
297 297 300 301 303 303 302 298 296 295 297 299 298 295 295 295 295 296 296 297 298 300 301 302 304 304 303 303 302 302 302 304 304 305 304 305 306 305 306 306 306 306 306 305
297 297 301 304 303 303 298 298 298 296 295 299 301 295 295 294 295 296 297 297 297 298 301 301 302 300 302 303 304 303 302 302 303 304 304 305 305 304 305 306 305 305 304 304
297 298 301 304 304 301 298 300 298 296 295 298 300 298 296 295 296 296 295 295 296 297 299 300 300 300 300 302 303 303 302 301 303 303 303 306 305 304 304 304 303 304 303 302
297 298 300 303 302 299 298 299 298 296 297 296 297 299 295 295 296 297 296 296 296 297 298 297 297 299 300 302 302 300 301 301 301 302 303 304 303 302 302 303 302 301 301 300
297 299 300 301 300 298 298 297 297 295 297 299 297 298 298 295 297 297 296 296 297 297 297 297 297 299 301 300 300 300 299 300 301 301 302 302 302 301 301 301 301 301 299 298
298 300 300 298 297 298 296 296 297 296 296 297 298 297 296 295 297 298 299 296 298 295 299 296 297 299 299 298 299 298 298 299 300 301 300 301 301 300 299 299 298 297 295 293
298 299 298 296 296 296 297 299 299 299 298 297 296 295 294 293 298 300 298 299 296 296 299 296 298 300 298 297 298 298 298 300 301 301 300 300 300 299 297 297 295 293 292 290
298 297 295 295 296 297 299 300 298 300 299 297 296 294 294 293 295 300 297 299 296 295 297 295 297 300 299 298 298 296 298 299 300 299 298 298 298 298 296 294 291 290 290 289
297 296 295 296 297 298 300 300 300 296 297 294 293 293 293 293 294 298 297 298 298 295 297 298 298 299 296 296 296 297 298 298 298 297 297 296 294 294 292 289 289 289 289 289
297 297 298 297 298 298 298 299 297 297 295 295 294 291 293 294 294 296 297 298 296 293 296 297 298 299 295 295 295 297 297 296 294 292 291 289 289 288 289 288 288 288 288 287
297 297 299 299 297 297 297 296 294 293 295 295 292 291 293 294 292 295 296 296 293 295 297 298 297 297 295 293 295 295 293 292 290 288 287 286 287 286 287 287 287 287 286 286
296 296 298 299 298 296 294 293 293 292 295 292 294 292 291 292 292 293 293 292 294 294 295 296 293 294 294 293 294 292 291 289 287 286 286 286 286 285 285 286 285 285 285 285
296 298 297 295 296 297 294 293 293 295 296 294 294 296 294 291 292 293 293 293 297 299 296 292 293 294 294 294 292 289 288 286 286 286 286 286 287 286 285 283 284 284 285 285

GFSNW_925_thetae_129.txt.gz
Theta_e
306 306 305 304 304 302 304 303 299 302 304 300 300 300 305 307 308 308 307 307 307 306 304 301 297 297 297 302 302 303 304 302 304 307 309 310 309 315 316 319 317 314 316 316
305 305 305 303 301 300 301 300 300 304 305 299 300 304 306 306 307 305 305 307 306 305 305 304 302 303 302 302 302 303 302 302 305 305 307 310 315 313 313 314 315 316 316 317
304 304 303 303 301 299 301 302 303 298 299 299 303 304 305 305 304 305 306 306 306 306 305 303 304 303 304 302 303 305 302 303 307 308 313 313 312 312 313 313 316 316 316 315
304 304 304 304 302 300 302 298 300 302 299 301 302 302 304 305 305 304 305 306 306 306 307 306 306 305 304 303 304 304 302 306 306 307 310 310 310 312 312 314 315 316 315 315
306 306 305 304 303 301 301 298 300 298 298 300 302 302 304 305 305 305 306 306 306 305 306 306 306 304 304 306 304 298 303 307 307 308 308 309 310 311 311 312 313 316 315 315
306 306 305 304 304 299 299 298 299 298 299 300 301 300 304 305 304 304 304 304 304 306 305 304 303 303 302 304 305 305 305 304 307 303 308 308 307 310 311 311 311 313 316 314
305 304 304 304 301 300 298 296 296 297 301 299 301 302 302 303 303 304 304 303 305 304 301 302 303 302 304 303 303 303 306 306 307 304 305 306 306 308 310 312 311 311 311 311
305 304 303 302 301 300 298 296 296 295 300 299 298 300 301 301 301 302 303 302 301 299 303 304 305 306 306 306 305 303 303 306 305 306 299 306 310 310 310 311 311 310 310 309
303 305 305 303 303 299 301 299 296 295 297 297 297 299 300 299 299 299 302 301 301 302 304 304 308 306 307 308 307 304 304 304 304 307 309 310 310 309 309 309 310 309 309 308
301 302 304 304 304 302 301 300 297 297 295 293 296 297 298 297 298 299 301 302 302 302 303 305 305 305 306 307 307 307 306 305 306 307 305 307 308 308 308 312 309 309 308 307
299 300 300 303 304 303 302 301 297 296 294 294 295 296 296 296 295 298 299 300 300 301 304 304 305 304 303 304 304 306 305 303 303 306 308 305 307 308 311 307 307 307 307 306
298 299 301 303 304 304 303 300 298 295 296 295 296 296 296 296 296 295 297 300 301 301 303 303 302 303 300 302 303 304 304 303 305 304 305 305 305 308 306 306 307 307 306 306
297 298 300 301 304 305 304 301 297 296 294 294 294 294 295 295 295 296 297 297 298 301 298 299 301 303 299 302 301 303 303 302 304 304 304 306 307 307 307 306 306 306 306 307
297 298 299 301 301 301 303 301 298 295 295 294 293 295 295 295 295 295 296 297 297 297 297 299 300 303 300 300 300 301 300 302 302 302 303 304 305 305 306 306 305 306 305 305
296 297 297 299 301 301 302 302 300 296 295 295 294 294 295 295 295 295 295 296 296 296 298 298 301 300 301 299 299 299 299 301 303 302 301 303 303 304 304 305 305 304 304 304
295 297 298 302 304 304 303 297 298 297 295 293 295 294 294 294 294 295 295 295 295 295 297 298 297 299 300 300 300 300 299 299 299 302 301 302 304 303 303 304 304 304 303 303
296 297 300 304 303 303 299 299 298 296 295 294 295 295 294 294 295 295 295 294 294 294 296 297 297 298 299 298 302 301 300 298 298 300 303 306 304 304 303 303 303 304 302 301
296 297 300 302 303 300 299 298 297 295 296 294 290 294 292 295 294 295 295 296 294 294 295 295 296 297 298 300 299 299 298 299 300 301 302 303 301 301 301 301 300 300 299 298
297 298 300 301 301 299 298 298 298 296 296 298 293 292 293 293 293 294 294 295 298 295 296 296 296 297 300 300 298 298 298 298 299 300 300 300 302 301 300 300 299 299 298 296
298 300 301 297 298 298 296 296 296 296 296 296 296 292 293 292 293 294 294 295 297 292 298 295 296 298 298 298 298 298 296 297 298 300 300 300 300 301 299 299 298 298 296 293
299 298 297 296 296 296 296 299 299 299 298 297 295 293 291 291 292 293 295 292 293 292 295 297 294 298 298 295 296 297 295 296 299 300 300 299 300 300 298 296 295 294 292 290
298 297 296 296 296 297 299 299 298 299 299 293 292 291 291 291 292 292 292 293 293 294 295 295 294 297 297 296 296 295 294 296 298 297 298 297 298 298 297 294 291 290 290 290
297 296 295 295 296 298 299 297 297 296 292 290 289 290 291 291 292 292 289 295 295 293 294 296 294 296 296 295 294 295 294 297 298 296 297 298 297 296 295 290 290 289 288 288
297 297 297 297 297 297 297 294 293 293 289 289 288 286 290 292 294 291 294 292 292 295 295 294 296 297 297 294 293 296 296 296 296 295 294 293 293 290 290 289 288 288 287 287
297 296 298 297 294 290 291 291 291 290 291 291 289 287 289 290 288 294 291 295 293 292 293 294 292 296 295 294 293 294 292 292 291 290 290 288 288 287 286 288 288 288 287 286
296 296 297 295 295 290 288 288 290 287 291 288 288 286 291 289 289 293 292 287 289 290 291 290 289 292 292 292 294 292 290 289 288 288 287 286 286 286 285 286 287 287 286 286
296 296 296 293 291 294 293 289 290 291 292 289 288 291 291 287 289 293 287 288 290 290 290 287 289 291 293 292 291 290 288 286 286 286 286 285 285 285 284 283 284 285 285 285

GFSNW_925_thetae_132.txt.gz
Theta_e
306 305 304 303 303 300 301 300 297 302 304 299 296 299 304 306 307 307 306 306 306 304 303 299 295 295 296 300 301 302 302 302 303 306 308 309 311 313 315 316 317 313 314 314
304 303 303 303 302 299 301 299 298 303 303 299 299 302 305 304 306 305 305 306 305 304 304 303 301 301 301 301 302 303 301 301 303 305 306 308 310 313 312 313 314 315 316 316
304 304 304 304 303 300 301 298 297 298 297 297 302 303 304 304 303 305 305 305 304 305 305 302 303 303 303 301 302 305 302 302 306 310 312 311 309 311 312 313 316 315 316 315
305 306 306 305 305 300 302 296 298 299 297 300 301 302 303 304 305 303 304 305 305 305 306 304 305 304 303 303 303 303 302 304 305 305 306 310 310 311 311 313 313 315 315 314
306 306 306 305 304 300 300 298 298 296 297 299 302 299 304 304 304 304 305 305 304 304 305 305 305 304 303 304 303 297 301 305 305 306 307 308 309 309 310 311 312 313 314 315
305 305 304 304 303 299 296 296 298 296 298 299 300 300 303 304 304 304 303 303 304 305 305 302 301 301 302 302 303 303 303 302 305 302 306 307 307 309 310 311 311 313 315 313
305 304 303 302 300 300 297 296 295 296 300 298 300 301 302 303 302 303 303 302 304 303 300 301 301 301 302 302 302 301 304 304 305 304 303 303 304 307 309 311 310 310 310 310
304 305 304 303 303 300 300 297 295 294 299 297 298 299 300 301 300 301 302 302 300 298 302 303 304 304 304 305 304 304 302 304 305 304 298 304 308 309 309 310 310 309 309 308
302 303 304 304 304 301 300 299 297 295 296 297 297 298 299 297 298 298 301 300 300 301 302 303 307 305 305 306 304 303 302 303 304 305 307 309 308 308 308 308 310 309 308 307
299 301 302 303 304 303 302 300 297 296 295 293 295 296 297 296 296 298 298 301 302 301 302 304 303 305 304 305 306 306 305 304 305 305 305 305 305 307 307 311 306 308 307 307
296 298 300 301 303 303 302 301 297 296 293 293 294 295 296 295 295 298 298 299 299 300 303 303 304 303 302 303 302 305 303 302 302 304 307 303 305 307 307 305 306 306 306 306
295 297 299 301 303 303 303 300 299 296 295 293 296 296 296 296 296 295 295 298 299 299 301 301 301 303 299 300 303 300 304 302 303 303 303 301 304 306 305 304 305 306 305 305
297 296 298 300 303 303 303 302 299 296 293 293 294 294 295 295 295 296 296 295 298 299 297 298 299 303 298 302 299 301 301 299 302 304 301 302 304 306 304 304 305 304 304 304
300 295 297 298 301 302 302 302 299 296 294 294 293 295 294 295 295 295 295 296 296 296 295 297 299 303 299 300 300 299 299 301 302 301 300 301 303 304 304 304 304 305 304 304
301 295 297 297 298 300 302 302 302 299 295 295 294 294 294 295 295 295 295 295 295 294 297 297 299 298 299 298 298 297 298 300 302 302 300 301 301 302 303 304 304 304 303 302
301 296 296 298 302 304 303 299 299 299 296 294 294 293 294 294 294 294 294 294 293 294 296 297 296 296 300 299 299 299 297 297 299 301 299 299 301 301 302 304 303 302 302 301
301 296 297 302 303 304 299 298 298 296 296 293 294 294 293 294 294 293 292 294 292 293 295 296 296 298 299 298 298 298 298 298 297 296 301 303 302 303 301 302 302 304 302 302
300 297 298 302 303 302 299 298 297 295 295 293 288 293 292 293 293 294 292 293 291 293 294 294 295 296 297 300 299 298 297 296 296 296 298 301 301 300 301 301 299 299 298 297
298 297 300 301 302 300 299 299 299 296 296 296 292 291 291 291 292 292 293 292 295 292 295 295 295 297 300 300 299 298 297 297 298 296 298 299 301 301 300 299 299 299 297 296
297 299 300 298 298 298 297 296 296 296 296 296 296 292 293 291 292 293 292 292 293 291 295 293 296 297 298 298 298 298 295 295 296 298 299 299 300 300 299 300 300 299 297 294
299 298 297 296 297 296 296 299 300 299 298 297 296 292 291 290 292 292 293 290 289 293 292 292 291 295 297 296 295 295 295 295 296 298 300 300 300 300 299 297 296 296 295 292
298 297 296 296 296 297 299 299 299 299 298 293 291 290 290 290 291 291 292 293 293 295 292 292 294 294 295 295 296 294 293 293 294 296 297 298 298 299 299 297 295 294 294 293
297 295 295 295 296 298 298 299 299 294 292 290 289 290 291 291 292 291 293 293 295 291 292 296 293 293 295 295 295 294 292 292 293 294 296 298 298 298 297 294 293 292 290 290
295 297 297 296 297 298 297 296 296 295 288 289 288 286 290 291 293 291 293 292 291 295 293 291 290 294 294 294 294 293 294 293 294 294 294 294 295 294 294 293 291 289 287 288
296 297 297 296 295 293 292 293 293 291 290 289 289 287 288 286 287 293 291 294 294 292 291 290 289 293 292 292 293 293 293 289 287 286 287 289 291 290 287 289 289 288 287 287
296 295 296 294 295 292 292 292 295 289 291 286 287 289 292 290 288 292 293 287 289 291 288 288 283 286 288 287 291 292 292 291 288 289 289 288 288 288 286 287 287 287 287 286
296 296 296 295 292 295 295 293 294 292 292 290 286 290 290 285 289 292 285 286 289 288 286 285 285 285 287 287 285 286 287 287 287 286 287 286 286 286 285 284 285 287 287 286

GFSNW_925_thetae_138.txt.gz
Theta_e
305 304 304 306 304 300 302 297 297 301 302 298 294 297 303 305 306 303 304 304 304 304 302 297 293 295 294 297 300 301 300 303 304 303 303 305 308 312 313 315 313 313 313 313
305 304 305 306 305 300 301 297 297 301 301 296 298 302 303 303 304 304 304 304 304 304 303 302 300 298 299 298 300 301 300 299 304 304 304 305 308 307 310 314 314 314 314 315
305 306 306 305 304 299 301 295 296 296 295 294 300 302 303 304 302 303 303 304 303 304 304 301 301 302 301 299 300 303 302 300 303 305 305 306 308 307 309 314 312 313 314 314
306 305 305 304 302 300 300 293 296 296 296 299 299 300 301 303 304 302 302 304 304 304 305 304 303 303 301 301 302 301 300 302 301 302 303 304 305 306 308 309 312 313 313 314
305 304 304 302 301 298 298 296 297 293 295 296 300 299 303 303 303 303 304 304 303 303 303 303 304 303 302 301 301 296 298 303 303 304 305 305 306 306 308 308 311 312 312 313
304 304 303 303 302 298 295 295 295 295 296 297 299 299 301 302 302 302 302 302 302 302 302 301 300 299 299 301 303 300 300 299 303 305 304 304 304 306 307 309 310 311 313 311
301 304 304 303 303 301 296 295 295 296 299 297 299 300 299 301 301 302 301 301 302 301 298 298 299 298 299 299 299 299 300 301 304 306 302 300 303 306 307 309 309 309 309 309
297 301 303 304 304 302 300 296 295 293 296 296 297 298 298 298 297 299 300 300 299 297 299 302 302 302 302 303 301 299 299 301 303 305 299 303 306 307 308 309 309 308 308 308
298 297 300 303 303 303 301 298 296 294 294 294 297 297 297 297 296 296 298 298 298 299 299 302 305 301 304 304 302 298 299 299 301 304 305 306 303 306 306 306 307 307 307 307
302 297 298 300 301 303 303 300 297 295 294 292 294 294 295 294 295 296 295 297 300 298 300 303 302 303 301 304 304 304 302 301 304 303 305 304 301 305 305 305 302 307 306 306
303 301 296 298 300 302 303 301 298 295 291 292 292 294 294 293 294 296 295 297 297 299 302 302 302 301 300 301 299 301 302 300 300 301 304 303 302 305 305 300 304 305 304 304
305 302 297 297 300 302 302 302 299 297 295 295 294 295 296 295 295 293 293 296 296 297 299 299 299 303 296 297 301 297 301 299 300 301 302 299 300 303 302 301 304 303 302 302
306 304 300 296 299 302 302 301 301 297 292 292 292 293 295 295 295 296 294 293 295 297 295 296 298 301 297 300 298 298 297 296 300 302 300 298 299 300 300 300 302 302 301 301
306 305 302 297 298 301 302 301 301 298 294 295 294 294 294 295 295 295 295 295 295 294 293 297 298 301 297 299 297 296 296 297 299 298 298 298 299 297 298 300 301 302 301 301
307 306 303 299 297 298 301 300 300 300 298 297 294 293 293 294 294 294 294 295 292 293 296 296 298 296 297 296 295 295 294 297 299 299 297 298 297 297 298 300 301 301 301 301
307 307 304 300 296 298 300 301 301 301 299 294 296 292 293 293 293 293 293 293 290 291 293 293 293 293 297 298 298 297 295 295 296 298 297 295 296 296 299 300 301 301 301 301
306 307 304 300 297 300 301 298 299 301 299 293 294 293 291 292 292 291 290 292 290 291 293 293 293 295 297 297 298 296 296 296 295 294 296 297 297 298 297 298 299 302 302 301
306 307 303 297 301 303 301 300 296 298 295 293 291 295 290 292 292 293 290 291 290 291 293 291 293 294 294 298 298 297 295 294 293 294 293 296 295 297 297 298 299 300 299 298
306 305 299 301 302 300 300 299 296 296 295 293 294 296 293 290 291 291 291 291 294 291 293 293 294 295 298 297 295 295 294 295 296 294 294 293 292 294 295 297 298 300 299 296
304 300 298 298 300 299 299 297 296 295 295 295 298 293 292 291 291 293 292 293 294 293 294 292 294 296 296 296 295 294 294 293 292 293 294 294 293 294 294 296 298 300 300 298
299 298 298 297 297 298 297 298 298 299 299 298 298 295 293 290 293 294 292 289 290 292 291 294 292 292 292 292 293 292 291 290 291 291 292 292 293 293 294 294 296 299 298 297
299 297 295 294 295 295 298 299 299 299 301 296 297 294 295 291 290 291 292 291 293 294 290 293 294 292 291 291 292 291 290 290 291 291 291 291 291 291 292 294 295 297 298 297
298 294 294 296 296 298 300 297 299 300 298 293 292 294 293 290 291 291 294 294 292 289 294 296 293 291 291 290 289 290 289 290 290 290 291 292 292 293 293 293 296 297 296 295
297 297 298 299 297 297 296 296 298 297 294 294 293 292 294 292 294 292 293 292 290 294 295 291 289 289 291 290 290 289 290 289 289 289 289 289 290 291 294 295 296 295 292 292
296 296 301 298 295 290 293 293 294 292 294 292 292 291 292 292 292 293 291 292 293 293 294 290 287 289 290 291 290 289 288 286 284 281 282 285 287 287 289 293 294 294 292 290
294 295 299 293 295 287 292 294 294 292 294 292 294 293 293 294 293 293 293 291 294 296 290 287 281 284 285 286 289 289 287 287 286 288 288 289 289 287 288 290 290 291 291 289
296 298 296 293 293 295 294 296 294 293 296 297 294 295 297 289 287 290 290 291 295 291 287 286 285 288 287 286 282 283 284 284 286 288 289 288 289 288 287 284 287 288 288 288

GFSNW_925_thetae_141.txt.gz
Theta_e
306 304 305 305 305 299 301 296 297 301 300 298 293 297 303 304 305 302 303 303 303 303 302 297 292 295 294 297 299 301 300 303 304 305 303 304 304 310 312 315 313 314 314 314
305 305 305 305 303 300 301 296 296 300 299 296 297 301 302 303 303 303 303 304 303 303 303 302 300 298 298 297 299 300 300 300 304 303 302 303 307 306 309 310 312 312 315 315
306 305 305 303 301 300 301 294 296 296 294 293 299 302 302 303 301 303 302 303 303 303 303 300 301 301 300 298 299 302 301 300 303 306 303 304 306 306 306 310 312 313 314 314
305 304 304 303 301 299 299 292 296 296 296 299 298 300 301 303 303 301 302 303 303 304 304 303 303 302 301 300 302 301 300 302 300 302 302 303 304 305 305 306 307 312 311 313
303 304 304 304 302 297 298 296 296 292 294 295 300 299 302 303 303 302 303 304 303 302 303 302 303 302 301 300 300 295 297 302 302 304 304 304 306 305 305 306 308 310 311 312
299 303 304 304 304 299 295 295 295 294 295 296 298 298 301 302 302 301 301 302 302 301 300 300 299 298 299 299 301 299 299 298 302 302 302 304 304 304 306 308 309 310 312 311
297 299 304 304 304 302 297 295 295 295 298 297 299 299 298 300 300 302 301 300 301 300 297 297 297 297 297 297 298 298 299 300 303 305 301 299 302 305 306 307 308 308 309 308
302 297 301 302 304 303 300 297 295 293 295 296 297 297 297 297 297 298 300 299 298 296 298 301 302 300 302 302 299 298 298 301 303 305 303 301 304 304 307 308 306 307 307 307
305 300 298 301 302 303 301 298 296 294 294 296 297 297 296 296 295 295 297 297 297 298 299 302 304 300 303 304 301 297 298 300 302 304 304 304 301 305 305 305 306 305 306 307
306 303 297 298 300 302 303 300 297 295 294 292 293 294 295 294 294 295 294 297 299 297 300 303 302 303 301 303 303 303 303 304 306 304 305 303 300 305 303 304 301 304 305 305
307 305 301 297 300 302 302 301 298 295 292 292 292 293 294 293 293 296 294 296 296 298 301 301 301 301 299 300 298 299 301 300 302 303 304 303 301 304 305 299 302 304 303 303
307 306 304 298 298 301 301 302 299 297 294 296 294 294 295 295 295 293 292 294 296 296 299 298 298 302 296 297 301 296 300 299 299 300 301 298 299 302 301 300 302 303 302 301
306 306 306 302 297 300 302 301 300 299 292 293 292 293 296 296 295 295 294 292 294 296 294 296 297 300 296 300 297 298 296 294 299 301 299 297 298 297 298 300 301 301 301 301
306 307 306 304 298 299 302 302 301 299 294 295 295 293 294 294 295 295 295 295 295 294 292 297 298 300 296 297 297 296 296 295 296 296 297 297 296 295 296 296 298 300 300 300
306 306 307 305 300 298 301 301 300 300 298 298 296 293 292 293 294 294 294 295 292 292 295 295 297 295 296 294 294 294 293 296 298 298 295 296 296 296 297 299 299 299 300 300
306 306 307 306 300 298 299 301 301 300 299 296 299 292 292 292 293 293 292 292 290 291 293 293 292 292 296 296 296 295 293 293 294 297 296 294 294 293 295 298 298 298 299 299
307 306 306 305 300 298 301 300 299 300 300 296 296 295 291 292 291 290 290 291 290 291 292 292 293 294 296 295 297 295 295 294 294 293 294 295 295 296 296 296 296 298 300 300
308 306 306 305 299 298 299 300 298 300 298 292 292 296 291 292 292 292 290 291 290 291 292 291 293 293 293 297 297 294 294 294 292 292 291 294 294 292 293 294 295 297 298 298
308 306 304 299 300 300 300 300 298 299 295 295 294 297 298 290 291 292 291 291 294 290 293 292 293 295 297 297 294 294 293 293 295 293 291 291 291 293 293 292 293 295 297 296
306 302 299 298 300 300 298 296 295 294 294 295 297 294 293 291 292 294 294 293 295 294 294 291 295 296 295 295 293 293 293 292 291 292 294 294 292 292 292 293 293 294 295 296
302 298 298 297 297 298 297 298 297 298 299 297 298 295 293 291 295 295 293 292 293 292 291 295 294 295 293 292 292 292 292 291 290 290 291 290 290 291 291 292 291 293 295 296
300 298 294 295 294 295 298 299 298 299 301 298 298 295 295 291 292 295 292 293 292 293 290 293 294 295 291 290 291 291 289 289 289 290 290 290 290 290 290 290 290 291 294 296
298 295 293 296 296 298 299 298 297 300 297 296 293 294 293 291 293 294 294 293 293 290 293 295 295 293 291 289 289 290 289 289 289 290 290 291 291 292 292 290 293 293 293 295
296 297 298 300 300 298 297 294 295 295 293 295 295 293 295 293 295 295 295 294 290 292 293 294 294 291 292 290 289 289 291 289 290 290 290 289 289 289 291 292 293 293 292 294
297 297 302 299 296 290 289 290 291 290 294 294 292 292 294 293 295 294 292 292 293 293 295 297 292 290 289 290 289 288 289 285 282 280 280 283 286 286 287 291 293 293 293 292
295 295 300 297 296 289 290 289 292 291 294 293 295 293 295 296 295 294 293 291 292 296 295 294 283 286 287 288 289 289 289 288 287 288 287 288 288 288 289 290 291 292 291 291
296 297 297 297 293 297 294 295 293 294 296 298 296 296 298 291 291 291 292 292 296 297 295 289 287 290 290 287 285 286 286 284 286 287 288 289 290 288 286 284 291 291 290 290

GFSNW_925_thetae_147.txt.gz
Theta_e
305 304 304 303 299 300 302 304 311 303 302 310 308 310 307 305 307 307 307 307 306 306 305 308 308 308 306 302 303 305 304 306 309 309 307 308 308 312 311 315 318 316 316 320
302 304 304 304 300 299 304 307 307 304 304 315 309 306 306 307 307 306 306 306 306 306 306 307 306 306 304 302 304 305 305 309 311 311 309 308 309 311 310 310 311 315 319 324
298 303 304 304 303 298 302 305 313 308 306 305 307 307 306 307 305 306 305 306 305 306 307 306 306 305 305 303 303 303 304 307 308 309 308 308 308 308 309 311 312 315 318 318
300 298 300 304 304 298 302 305 307 304 312 307 306 305 305 306 306 305 305 306 306 306 307 307 306 306 306 305 304 305 307 308 307 307 307 307 308 308 308 310 310 314 317 315
305 299 298 301 304 299 303 307 306 303 305 304 305 304 306 306 305 305 305 306 306 306 307 306 306 305 306 307 305 306 305 307 306 308 308 307 309 309 309 309 310 310 311 312
306 304 299 299 304 301 302 300 300 304 303 305 305 305 305 305 305 305 305 305 305 306 306 305 305 305 305 305 305 306 305 307 307 310 308 308 310 309 308 309 310 310 312 312
307 306 301 298 301 303 300 298 301 305 307 304 305 303 303 304 304 304 304 304 305 304 303 303 303 303 304 304 304 304 305 306 306 309 309 313 308 308 309 309 309 310 310 310
307 307 304 299 299 303 301 298 301 304 307 305 304 303 304 303 302 302 303 303 303 302 303 306 306 306 307 306 305 305 304 305 307 309 310 309 308 307 306 309 308 309 309 309
305 307 306 302 298 299 302 300 298 301 305 307 303 302 302 305 304 302 301 300 300 302 305 305 307 308 306 307 306 303 304 304 306 308 308 310 307 309 309 309 311 308 308 307
306 306 307 305 299 298 302 301 300 300 305 304 301 303 304 302 302 305 302 302 303 303 305 306 308 307 306 307 307 305 304 305 306 307 307 307 307 309 309 309 309 308 308 308
308 306 307 306 303 298 300 302 300 300 304 304 298 299 300 300 302 306 302 303 303 304 305 306 307 307 307 306 306 307 307 307 307 306 307 308 306 308 308 307 307 307 308 308
308 307 306 307 305 300 300 302 301 299 300 304 298 298 298 298 300 302 301 303 304 305 306 305 306 306 306 305 305 304 306 306 308 307 308 306 306 308 308 308 307 306 305 305
308 309 306 306 306 303 298 302 300 299 301 303 300 301 299 297 295 297 301 301 302 302 303 306 305 305 305 307 306 305 304 304 305 304 305 306 306 306 305 305 304 303 303 303
308 309 308 306 307 305 300 301 301 300 301 302 305 296 295 295 295 295 296 297 298 300 302 304 304 304 303 304 305 304 305 303 303 304 304 304 304 304 304 303 303 303 303 303
309 309 309 306 306 306 301 300 301 301 301 305 304 299 295 293 294 295 295 296 299 300 302 302 303 303 303 303 303 304 304 303 303 305 304 304 304 302 302 302 302 302 301 302
308 309 309 308 306 305 300 301 300 302 300 300 304 297 294 293 294 295 296 297 298 299 300 301 301 301 301 303 303 304 304 304 304 304 303 302 302 301 301 301 301 300 301 301
308 308 309 309 306 304 299 300 299 300 300 299 302 305 294 294 294 295 295 295 297 297 298 298 299 299 300 301 303 304 304 303 303 303 302 301 301 301 301 300 299 299 298 298
308 308 308 309 307 302 299 300 300 300 300 296 302 304 296 293 296 297 296 297 296 297 297 298 298 299 299 301 301 302 302 303 302 301 301 301 301 301 299 299 298 298 299 299
308 308 308 306 302 299 299 299 300 300 299 300 300 304 309 293 296 295 295 296 298 297 297 298 297 299 301 300 299 301 301 300 300 300 300 300 299 299 299 298 299 299 300 300
307 306 304 299 299 300 300 298 297 297 297 296 299 300 302 296 295 296 297 296 298 299 298 297 297 299 299 299 300 300 301 301 299 299 299 299 298 298 298 299 299 299 299 298
305 300 298 298 299 299 299 299 298 299 299 297 298 301 301 293 299 300 297 300 299 299 300 298 301 300 297 299 299 300 300 300 299 299 300 300 299 299 298 298 298 298 298 298
303 299 297 298 297 297 300 302 300 300 301 300 299 299 301 295 297 300 297 300 298 301 296 296 298 298 299 299 298 297 297 299 299 298 298 298 297 297 296 297 298 298 298 297
299 295 294 296 296 301 303 304 303 303 300 301 298 298 297 294 295 299 298 299 300 295 296 297 298 299 298 298 297 296 296 296 298 297 297 296 296 295 296 297 297 297 297 297
298 297 299 300 302 302 306 305 306 303 302 299 299 298 299 297 297 300 300 300 297 298 299 299 299 299 299 298 296 295 295 294 294 295 294 294 295 295 295 295 295 295 296 296
297 297 303 301 303 304 301 302 300 298 300 299 298 297 298 298 300 299 300 297 299 300 302 302 300 300 298 298 295 295 296 294 293 293 294 294 294 294 294 294 294 294 294 294
296 296 300 302 301 304 298 298 300 298 299 298 300 298 300 301 301 300 301 301 301 304 299 300 301 298 296 296 296 294 295 295 294 294 293 293 293 292 293 293 293 293 292 292
299 299 297 301 302 305 305 300 299 298 298 301 301 300 301 301 301 302 302 302 306 302 299 297 299 299 298 296 295 294 294 294 294 294 293 293 293 293 292 292 294 294 294 293